Wind_Speed
108 110 110 109 108 108 110 110 110 109 108 108 107 105 104 102 100 100 100 99 98 97 93 92 89 86 87 88 91 94 96 95 93 94 94 93 91 89 87 86 86 86 86 86 84 82 81 78 80 82 81 81 80 80 79 77 76 75 74 73 71 69 67 64 63 62 61 60 60 60 60 60 60 61 62 63 64 65 66 67 67 69 70 71 73 74
106 105 103 102 103 106 110 112 113 113 111 109 109 109 107 106 105 105 106 105 105 103 101 100 98 94 93 95 97 99 100 97 95 94 93 92 91 90 89 88 87 87 87 86 84 82 81 80 81 82 81 80 81 80 78 76 75 74 73 72 70 68 65 64 63 62 61 61 60 60 60 61 61 62 63 64 65 65 66 68 70 72 73 73 74 76
107 103 99 99 102 104 107 110 112 113 113 111 110 109 108 106 106 107 108 108 108 107 105 105 103 98 95 97 98 99 98 95 94 94 93 92 92 92 92 90 89 87 86 85 84 83 81 80 82 82 81 81 80 79 77 76 75 74 73 71 69 66 64 64 63 62 62 61 61 61 61 61 62 63 64 65 66 66 67 69 72 74 75 76 77 78
108 105 103 104 106 105 105 107 109 111 112 111 111 109 107 106 106 108 108 109 109 109 107 106 105 99 96 97 97 97 97 95 95 96 95 94 94 94 93 91 88 86 85 84 84 83 81 81 82 82 82 82 80 78 77 75 74 73 72 70 67 65 64 64 63 63 62 61 61 61 61 62 63 64 65 66 66 66 69 71 73 74 76 78 79 80
110 108 108 110 110 109 108 107 106 106 106 107 107 107 106 106 108 109 109 110 111 110 108 108 107 101 96 97 98 98 98 97 97 97 95 93 93 92 92 90 88 86 84 84 83 82 81 81 82 82 82 81 79 77 76 75 74 72 70 67 65 64 64 64 64 63 62 61 61 61 62 62 63 64 65 66 66 67 69 71 72 74 76 78 80 81
112 111 111 112 113 112 111 110 108 107 106 105 105 104 105 106 108 109 109 110 110 110 108 108 108 102 96 97 98 98 97 96 95 94 93 92 91 91 91 89 87 86 85 84 82 81 81 81 82 82 81 80 78 76 75 74 73 70 68 66 65 64 64 64 64 63 62 61 61 61 61 62 63 64 65 65 66 68 69 70 72 74 77 80 81 82
114 113 114 114 115 115 114 112 111 111 110 108 107 105 106 107 108 109 109 110 110 108 107 108 108 102 95 95 96 95 94 93 92 91 91 91 91 91 90 89 87 86 85 84 83 82 82 81 81 80 80 80 77 75 74 73 71 68 67 66 65 64 64 64 64 63 62 61 60 61 61 62 63 63 64 64 66 67 68 69 72 75 78 81 82 84
115 115 116 116 117 117 116 114 113 114 114 112 111 110 111 111 111 111 111 111 110 108 107 107 107 103 96 92 93 93 91 91 90 89 90 92 93 92 90 89 88 87 87 86 84 83 82 81 81 80 80 79 77 74 73 71 69 67 66 65 65 65 64 64 63 63 61 60 60 61 61 61 62 62 63 64 66 67 67 69 71 75 78 79 81 84
118 118 119 119 120 119 117 116 116 118 118 115 114 114 114 114 114 114 113 113 112 111 108 105 106 106 98 90 90 92 90 88 88 89 92 94 94 92 90 89 89 89 88 88 87 84 83 82 81 80 80 78 76 74 72 70 67 66 65 65 65 65 64 63 63 62 61 60 60 60 60 60 60 61 62 63 65 65 65 68 71 74 76 74 76 79
121 121 121 122 121 119 117 117 119 121 120 118 117 116 116 117 116 116 116 115 116 115 110 106 108 109 103 92 89 92 90 87 89 92 95 95 95 94 92 91 91 90 90 89 88 85 83 82 82 81 79 78 75 74 72 69 66 65 65 64 65 65 64 63 62 61 60 59 59 59 59 59 59 60 60 62 64 64 64 67 69 71 71 69 70 73
124 123 123 123 122 120 119 119 120 121 121 120 119 118 118 118 118 119 118 118 119 116 111 109 110 112 109 97 90 92 92 90 92 94 96 97 97 96 94 93 92 91 90 89 87 85 83 83 83 81 79 77 75 73 71 68 66 65 65 65 65 64 63 61 61 60 59 59 58 58 58 57 58 58 58 60 61 62 63 66 67 68 66 63 62 64
125 125 124 123 123 122 122 122 121 122 122 122 121 120 120 121 122 122 121 121 121 117 112 111 112 114 111 100 91 92 93 94 94 95 96 97 98 98 96 95 94 91 89 88 87 85 84 84 83 81 78 76 74 72 70 68 67 66 66 65 65 63 62 61 60 60 59 58 57 57 57 56 57 57 56 57 59 60 62 63 64 64 62 58 53 52
125 125 125 125 125 125 125 124 124 124 124 123 123 122 123 124 124 124 124 123 121 118 115 115 116 116 113 103 94 93 94 95 95 94 95 96 97 98 98 97 95 93 90 89 87 85 84 83 82 80 77 75 73 70 68 68 67 67 66 66 64 62 61 60 60 59 58 57 56 56 55 54 55 56 54 53 56 58 59 60 60 60 59 53 46 42
122 123 124 125 125 125 126 125 125 124 124 125 124 124 125 126 126 125 124 124 122 120 118 119 119 118 114 106 98 94 94 95 95 95 94 95 96 96 97 96 95 93 92 90 88 86 84 83 81 79 76 73 71 69 67 67 67 67 67 66 64 62 61 60 59 58 57 56 55 55 53 52 54 55 52 50 52 54 55 56 55 54 54 50 40 33
120 119 119 119 120 121 122 123 123 124 126 127 128 129 130 130 129 127 126 126 124 123 122 123 123 119 113 106 99 96 95 95 96 96 95 94 94 94 93 92 92 93 92 89 87 86 84 81 79 77 75 72 69 67 66 66 66 67 66 65 63 61 60 59 58 57 56 55 54 53 51 50 51 52 50 47 48 51 50 51 50 46 47 46 37 28
120 118 116 117 118 118 119 119 121 123 125 127 129 130 130 129 128 129 129 128 127 126 126 125 123 117 110 105 101 98 96 95 95 94 93 92 90 89 88 87 89 91 90 87 85 83 80 78 76 75 73 70 68 67 66 66 66 66 66 64 62 60 59 59 57 56 55 55 53 51 48 48 49 50 48 44 45 47 45 45 43 36 38 39 32 27
124 122 119 119 120 119 118 119 120 121 122 125 127 126 124 124 126 129 129 128 128 128 127 126 122 116 111 107 103 99 96 94 92 91 90 88 86 84 83 86 88 87 86 85 82 80 77 75 74 73 71 69 67 67 66 66 66 65 65 63 61 60 59 58 56 55 55 53 52 50 46 46 46 47 47 42 41 43 41 39 37 30 29 30 26 26
128 126 123 122 123 121 121 122 122 122 123 124 123 120 120 123 124 127 128 127 128 128 126 124 120 115 113 108 101 97 94 92 90 90 88 86 84 82 83 87 88 84 83 83 81 78 76 74 73 71 70 69 68 68 67 66 65 65 64 63 61 59 58 57 55 54 53 52 50 48 45 44 44 45 45 40 37 39 37 35 31 25 24 22 21 21
131 129 126 125 126 125 125 125 125 125 124 122 120 118 119 122 122 123 124 125 124 124 122 120 116 113 110 104 96 91 91 90 89 88 87 85 84 83 84 87 88 84 82 82 81 78 76 73 72 70 69 69 69 69 68 66 66 65 65 64 62 60 58 56 54 53 52 51 49 47 45 43 42 42 42 39 35 35 34 32 28 23 20 16 15 16
134 133 130 128 129 130 130 130 128 126 124 122 120 119 119 120 119 119 120 120 119 119 118 115 113 109 104 97 91 87 87 88 88 87 86 86 85 84 86 88 87 85 82 81 81 80 77 74 72 71 70 70 70 70 68 67 66 66 66 65 63 60 57 55 54 52 51 49 48 47 45 42 41 40 40 37 33 31 31 29 26 21 16 10 9 10
136 137 135 132 132 133 132 130 128 125 124 124 122 121 121 120 119 117 117 116 115 115 113 111 108 102 93 89 87 84 84 86 88 88 88 88 87 86 88 88 88 86 84 82 82 81 79 76 74 73 72 71 71 71 69 68 67 67 67 65 63 60 57 55 53 52 50 48 47 47 45 42 40 38 37 35 33 30 28 28 25 20 13 6 3 4
137 138 137 135 134 134 132 129 128 128 128 128 127 125 123 122 121 121 119 116 113 112 111 108 105 96 87 85 84 82 81 83 85 87 87 88 88 87 88 89 88 86 85 84 84 83 81 78 76 75 74 73 73 72 70 69 68 68 67 65 64 61 57 55 54 52 50 48 47 47 46 43 40 37 35 33 32 29 27 27 25 22 15 8 8 8
138 140 140 139 137 136 134 132 131 131 132 131 130 128 127 126 125 123 120 116 113 113 111 110 106 95 85 82 81 78 78 79 81 84 85 86 86 86 87 88 87 86 85 85 85 84 83 80 78 77 76 76 75 73 72 71 69 68 67 66 64 61 57 56 55 53 50 48 47 46 46 43 40 37 34 32 30 29 26 26 26 24 19 13 14 16
140 143 144 142 140 138 136 135 135 134 134 133 131 129 127 125 123 122 120 118 117 116 114 112 107 93 82 80 78 75 75 75 77 79 80 81 82 82 83 85 85 85 85 85 84 84 83 80 78 78 78 78 77 75 74 72 70 69 67 66 64 61 58 57 56 54 51 48 47 46 45 43 40 36 34 31 29 29 26 25 27 26 23 19 17 19
141 144 144 143 141 140 139 138 137 136 135 133 129 126 125 125 125 125 125 124 123 119 115 114 109 94 83 81 79 76 75 74 75 76 77 78 78 79 80 81 82 82 83 83 83 83 82 80 79 79 79 80 78 76 75 73 71 69 67 66 65 61 58 57 56 55 52 49 47 46 45 43 40 37 35 31 28 28 27 25 26 27 27 24 22 21
141 142 142 142 142 142 140 138 136 134 132 131 129 127 127 128 129 128 127 127 125 121 117 116 110 97 87 84 82 80 78 77 77 77 77 77 77 77 78 78 78 79 79 80 80 80 80 80 80 80 80 80 79 77 75 73 71 69 67 66 64 61 58 57 57 55 53 51 48 47 45 43 40 37 35 32 28 27 28 26 25 27 29 28 27 26
140 141 141 141 141 141 140 138 136 135 136 136 135 133 131 130 130 130 130 129 127 124 121 118 111 101 93 89 87 85 83 82 81 80 79 79 78 78 78 77 76 76 76 77 77 77 78 80 80 81 80 79 78 76 75 73 71 69 67 66 64 62 59 58 57 57 55 52 49 47 45 43 40 38 36 33 30 28 28 28 26 26 29 31 31 31
140 140 141 142 141 140 139 138 138 139 140 140 138 136 134 133 133 133 134 132 129 127 123 118 113 105 98 95 93 90 88 87 86 84 83 82 81 80 79 79 77 77 76 75 75 76 77 78 79 79 78 77 76 75 74 72 71 69 67 66 65 63 60 59 58 58 57 54 51 48 46 43 41 39 36 34 32 29 28 28 28 27 28 33 36 35
140 141 141 142 142 140 138 136 136 138 139 140 139 137 136 135 135 135 134 132 129 128 124 117 113 108 101 98 98 95 92 91 90 89 88 86 84 83 82 81 80 79 77 76 76 76 76 76 77 77 75 74 74 73 72 71 70 70 69 67 66 64 61 60 60 59 58 56 53 49 47 45 43 40 37 34 33 32 29 29 29 28 28 32 37 40
142 141 142 143 143 141 139 137 136 137 138 138 138 137 137 137 137 136 134 132 131 130 125 119 116 112 104 100 100 98 96 94 93 93 92 89 88 87 86 84 82 80 78 77 76 75 74 74 74 74 73 72 71 71 71 71 71 71 70 69 67 64 63 62 61 60 59 58 55 51 48 46 44 42 38 35 34 34 32 30 30 30 30 31 35 41
143 143 142 144 143 141 140 138 137 136 137 137 136 136 136 137 137 136 135 134 132 131 127 121 118 113 105 100 100 100 98 95 93 94 93 91 91 90 88 85 83 81 80 78 76 74 72 72 73 72 72 71 70 69 70 71 71 71 70 70 68 66 65 64 62 61 60 58 57 54 50 48 46 44 40 37 36 35 34 32 31 31 31 32 34 39
143 143 142 143 144 141 140 140 138 137 136 136 134 132 133 135 136 136 135 134 132 130 127 123 119 114 107 104 103 101 99 96 95 95 96 95 94 93 91 88 87 85 84 82 80 78 74 72 72 72 71 70 69 69 70 71 70 70 70 70 69 67 66 65 64 63 61 60 58 56 53 50 48 46 42 40 38 37 35 34 33 32 32 33 35 38
138 140 141 143 144 142 140 140 140 138 137 135 132 130 130 131 133 133 133 132 132 131 129 126 121 116 112 111 108 102 99 99 98 98 99 99 98 97 95 93 92 91 89 88 86 82 79 75 73 72 71 70 69 70 72 71 69 69 69 70 69 68 67 66 65 65 63 62 60 57 54 52 50 48 45 43 41 40 38 36 34 33 34 35 36 39
132 135 137 141 143 142 140 141 141 140 137 133 130 129 128 129 131 132 132 131 130 131 130 127 124 120 117 115 110 104 101 103 103 102 102 100 99 99 98 97 96 95 93 93 91 86 82 79 76 74 73 71 72 74 74 72 69 67 68 69 69 68 67 67 67 66 65 64 62 60 57 54 52 50 47 45 44 43 41 40 37 35 35 36 38 40
124 127 132 137 141 141 139 141 144 143 138 132 129 130 129 129 129 130 130 129 129 130 131 129 126 122 119 116 112 107 107 107 107 106 104 101 99 99 99 98 98 98 97 97 95 91 87 83 80 78 77 76 77 78 75 71 69 68 67 68 68 68 68 68 67 67 66 66 65 63 60 56 54 51 49 47 46 46 45 43 41 38 36 37 39 40
117 121 125 131 137 138 138 141 144 143 137 132 130 130 130 130 129 128 128 127 126 128 128 127 124 122 120 117 114 111 111 111 110 108 104 101 100 100 99 99 100 102 102 100 98 96 93 88 85 83 82 82 81 78 74 71 70 69 68 69 69 69 69 69 68 68 68 68 67 66 63 59 55 52 51 49 48 47 48 46 44 42 39 38 39 41
114 116 119 124 130 133 135 138 141 141 137 134 131 130 130 129 128 127 127 126 125 125 125 124 122 121 119 117 115 114 114 115 114 109 103 101 102 102 101 102 104 105 105 103 101 100 98 94 90 87 86 84 82 79 75 74 73 72 71 71 71 71 70 70 70 70 70 70 70 69 66 62 57 53 51 51 50 49 49 48 47 45 43 41 41 41
111 112 114 118 123 127 130 132 136 138 136 133 131 129 129 129 129 129 130 128 125 125 125 124 122 120 118 115 114 115 118 119 115 107 101 103 106 106 107 108 109 109 106 104 104 102 100 97 94 92 90 87 84 82 79 78 77 76 74 73 72 72 71 71 71 72 73 73 73 72 69 64 59 55 53 53 54 52 51 50 49 48 47 45 44 43
109 110 112 114 117 120 124 127 129 132 132 129 127 126 128 129 130 132 133 130 126 125 126 126 124 121 118 115 114 117 120 120 113 103 101 107 111 112 114 115 115 112 108 106 105 104 102 100 98 97 94 91 88 87 85 84 82 79 77 75 74 73 72 72 73 75 76 77 75 73 70 66 61 58 55 55 56 55 53 52 52 51 50 49 48 46
106 108 110 112 112 114 118 121 122 123 124 123 121 122 125 129 131 134 136 132 128 126 126 126 124 121 119 117 117 119 121 117 107 101 105 113 117 119 121 121 118 115 112 109 107 105 104 103 102 100 98 95 93 93 92 90 87 82 79 78 77 75 73 74 77 79 79 79 76 74 72 69 64 61 59 58 58 58 56 55 55 54 53 52 51 50
103 106 108 109 109 110 113 116 116 116 116 116 116 117 122 128 132 135 135 132 129 127 126 125 124 123 121 120 120 120 118 112 105 105 112 119 122 123 123 121 118 117 115 112 110 108 106 105 103 102 101 99 98 98 97 95 90 85 82 81 79 77 77 79 81 82 81 79 77 75 74 72 68 64 62 61 60 60 60 58 57 57 56 55 54 53
99 102 105 107 107 108 110 111 111 110 108 108 110 114 119 126 131 133 132 131 129 127 126 125 126 126 124 122 121 119 115 110 108 111 117 121 122 122 122 120 118 117 116 114 113 111 108 106 105 103 102 102 102 102 100 98 94 90 87 84 82 81 83 85 85 83 81 80 79 77 76 75 72 68 66 65 63 63 63 62 60 60 59 58 57 57
93 98 102 103 104 106 108 109 108 105 101 100 105 112 118 122 126 129 130 130 128 126 125 126 127 128 126 124 122 119 115 113 113 116 119 120 120 120 120 119 118 117 116 115 114 113 111 109 107 105 104 103 103 103 103 100 98 95 92 89 87 87 88 89 87 85 84 82 81 80 79 78 76 72 70 69 67 66 66 65 64 63 62 62 61 60
89 93 96 98 101 104 106 106 105 102 98 99 104 112 116 118 121 125 128 129 126 123 124 126 127 127 126 125 123 120 117 116 118 120 121 121 120 120 119 118 118 117 115 114 113 112 111 110 109 108 107 105 104 103 104 103 101 99 96 94 93 92 92 91 90 89 87 86 84 83 82 82 80 76 74 73 72 71 69 68 67 66 65 64 63 62
85 89 91 93 98 102 103 103 103 102 101 101 105 112 115 115 118 121 124 125 125 123 123 124 124 125 126 125 124 122 120 118 120 122 122 122 121 121 120 119 119 118 116 114 112 111 110 110 109 109 109 108 106 104 104 104 103 101 99 98 98 97 95 95 94 92 91 90 88 86 86 86 84 81 78 77 75 75 74 72 70 68 67 66 65 64
82 87 89 90 94 98 99 101 102 103 103 103 105 110 114 113 114 117 119 120 122 121 122 121 121 122 126 126 125 123 121 120 121 123 124 124 123 122 121 120 119 117 116 115 113 111 110 109 110 110 110 109 108 106 105 105 104 103 102 102 101 100 99 98 97 95 94 94 92 90 90 89 87 85 83 81 79 78 77 75 73 70 69 68 67 67
80 85 87 87 90 94 97 98 101 102 102 102 104 108 111 110 109 111 114 116 118 119 120 120 118 119 123 125 124 122 120 120 121 123 125 126 125 124 123 122 119 117 116 115 113 111 110 110 110 110 110 110 108 107 106 106 105 104 104 103 103 102 101 101 99 98 98 96 95 93 92 91 90 88 86 84 82 81 80 78 76 74 72 71 70 70
79 84 86 86 87 91 94 96 98 99 100 102 103 104 107 107 105 105 108 111 114 116 117 117 116 117 120 121 120 119 119 119 121 122 124 126 126 127 126 124 121 118 115 114 113 112 110 110 111 111 110 110 109 108 107 107 106 106 105 105 104 104 104 103 102 101 100 98 97 95 94 94 93 91 88 86 84 83 82 80 77 76 74 73 72 71
80 82 84 84 85 87 91 93 95 96 98 100 100 100 102 104 103 102 103 106 110 113 113 113 113 114 117 117 116 115 115 118 119 121 122 124 126 127 128 127 124 120 116 114 113 112 111 111 112 112 111 110 109 108 108 108 108 107 107 106 106 106 105 105 104 103 102 100 98 96 96 95 94 92 90 88 87 85 83 80 78 77 76 75 74 73
78 78 80 83 83 85 87 90 92 94 96 97 98 99 100 102 100 99 100 104 108 110 111 110 110 111 112 112 111 111 113 115 117 119 121 123 125 127 128 128 126 122 118 116 115 114 113 113 113 113 112 111 110 108 108 108 108 108 108 107 107 107 106 106 106 105 104 102 100 99 98 97 95 93 92 91 89 87 85 82 81 80 79 78 77 77
75 75 79 82 81 82 85 88 91 93 94 95 97 97 98 98 97 97 99 102 105 107 108 108 108 108 108 107 106 107 110 113 115 117 119 122 125 126 127 128 126 124 121 119 118 116 115 115 115 114 113 112 110 108 107 107 107 108 108 108 108 108 108 108 108 108 107 105 104 102 101 99 97 95 94 92 91 89 86 85 84 83 83 82 81 81
Wind_Direction
241 241 241 241 242 242 242 242 242 241 241 241 242 241 242 242 243 243 244 245 246 246 246 246 245 244 245 247 249 252 254 255 257 259 260 261 262 263 264 266 267 269 270 272 274 275 276 277 277 277 279 281 281 283 284 285 285 285 285 286 287 285 283 281 280 279 277 276 275 274 274 274 274 274 274 274 274 274 274 273 273 271 269 268 269 268
240 240 241 242 242 243 243 243 243 243 243 243 244 244 244 244 245 245 246 246 247 247 247 247 246 245 246 248 250 252 254 256 258 258 259 261 262 264 265 266 267 269 271 272 273 274 276 277 277 277 279 279 280 282 283 283 284 284 285 286 286 283 281 280 279 278 276 276 275 274 274 274 275 275 276 276 276 276 276 275 274 272 270 268 268 268
238 239 240 241 242 242 243 243 243 244 244 244 244 245 245 246 246 246 247 247 247 248 247 247 247 246 246 248 250 252 254 255 257 258 259 261 263 264 265 266 267 268 270 271 273 274 276 276 276 277 278 278 279 281 281 282 282 283 284 285 284 281 280 279 278 277 276 275 275 275 275 275 276 277 277 277 278 278 278 277 275 274 273 271 269 268
237 237 238 239 240 240 242 243 244 244 244 245 245 246 246 246 246 246 247 247 247 248 248 248 248 247 247 248 250 251 253 255 256 258 259 261 262 263 264 266 267 267 268 270 272 274 275 275 275 276 277 277 278 279 280 281 282 283 284 283 281 280 279 278 277 276 275 275 275 275 275 276 277 277 278 279 280 281 280 279 278 278 276 274 272 269
237 237 237 238 239 239 240 242 243 244 244 245 245 246 246 246 246 246 247 247 248 248 249 249 249 248 247 249 250 251 253 255 256 258 259 260 262 263 264 265 265 266 268 270 271 273 274 274 275 275 276 276 278 279 280 280 281 282 283 281 279 278 278 276 275 275 274 275 275 275 276 277 277 278 279 281 283 284 283 283 283 282 280 277 274 271
236 236 237 238 239 240 240 241 242 243 243 243 244 245 245 246 246 246 247 247 248 248 249 249 249 248 248 249 250 252 253 255 256 258 259 261 262 263 263 264 265 266 267 269 270 271 272 273 273 274 275 276 278 279 279 280 281 282 281 279 278 277 276 275 274 274 274 275 275 275 276 277 278 280 282 284 286 286 286 287 286 285 283 280 277 274
235 236 237 238 239 239 240 240 241 242 242 242 243 243 244 244 245 245 246 246 247 247 248 249 250 249 248 249 251 252 253 255 256 259 260 261 261 261 261 263 265 266 267 268 269 270 270 271 271 272 273 275 277 278 278 279 280 280 278 276 276 275 274 273 273 273 274 275 275 276 277 278 280 282 284 287 287 288 289 289 289 287 285 283 281 277
234 235 236 237 237 238 239 240 241 242 242 242 242 242 243 243 243 244 245 246 246 247 247 248 250 250 248 248 251 252 253 255 256 258 259 259 259 259 261 263 264 265 266 267 268 268 268 269 269 270 272 275 276 276 277 278 278 277 275 274 274 274 273 272 272 273 274 275 275 276 277 279 282 284 287 289 289 290 292 292 291 290 288 287 285 281
234 235 235 236 236 237 238 239 240 241 241 241 242 242 243 244 244 245 245 246 247 247 247 248 250 251 249 247 249 251 253 254 256 256 256 257 258 259 261 262 263 264 265 266 267 267 267 267 268 270 272 273 274 275 276 276 276 274 273 273 273 272 272 271 272 273 274 274 275 277 279 281 283 287 289 291 292 293 294 294 294 293 292 291 288 284
235 235 236 236 237 237 238 239 239 241 241 242 242 243 243 244 245 245 246 247 247 247 248 248 250 251 250 246 247 251 252 253 253 254 255 256 258 259 260 261 262 263 264 265 265 266 266 267 268 269 271 272 273 274 274 274 273 272 271 271 271 271 270 271 271 272 273 274 275 277 280 282 285 288 291 293 294 296 297 297 297 297 297 296 292 286
236 236 236 237 238 237 238 238 239 240 241 241 242 242 243 244 245 245 245 246 247 247 248 248 249 251 251 248 246 249 251 251 251 253 255 257 258 258 259 260 261 262 263 264 265 265 266 266 268 268 270 270 271 271 272 271 271 270 270 270 270 270 270 270 271 271 272 274 275 278 280 283 287 290 293 295 296 298 299 300 301 302 302 300 294 287
237 237 237 238 239 239 238 239 239 240 241 241 241 242 242 243 244 244 245 245 246 247 247 248 249 250 250 248 246 246 249 250 251 252 253 255 257 259 260 260 261 261 262 263 264 265 265 265 266 267 268 268 269 269 269 269 268 269 269 269 270 270 270 269 269 270 272 273 275 278 281 284 288 291 294 297 299 301 302 303 306 307 307 304 296 288
237 237 237 238 238 239 239 239 240 241 242 242 242 242 243 243 243 244 245 245 246 247 247 247 248 248 249 248 245 245 247 249 250 252 254 256 258 259 260 260 260 261 261 262 263 263 264 264 265 266 267 267 266 266 266 266 266 267 268 269 269 269 268 268 268 269 271 273 275 278 281 285 289 291 295 299 300 302 304 307 310 312 312 311 304 293
238 237 238 238 239 239 240 241 241 242 243 243 244 244 243 244 244 244 244 245 246 246 246 246 246 247 248 248 247 246 247 248 250 252 254 256 257 258 259 260 260 261 261 261 261 262 263 264 265 265 265 264 264 263 263 264 265 266 267 267 268 267 267 267 267 269 270 272 275 278 282 286 290 293 296 300 301 303 307 310 313 317 319 321 316 302
239 239 239 239 240 240 241 241 242 242 242 242 243 243 243 243 244 245 245 245 246 246 245 245 246 247 248 249 248 247 247 248 249 251 252 254 257 258 259 259 260 261 260 260 260 261 261 262 263 263 262 262 261 261 261 262 264 265 265 266 266 266 265 265 266 268 270 272 274 277 281 286 291 294 297 301 303 305 310 312 315 323 327 326 326 317
240 239 239 239 239 239 239 240 241 241 241 242 242 243 244 245 246 246 246 246 247 247 247 247 247 248 249 249 249 248 248 248 249 250 252 253 255 257 259 259 259 259 260 260 260 260 260 261 260 260 259 259 259 259 260 261 262 263 264 265 265 264 264 264 265 267 269 271 274 277 281 286 291 294 298 302 304 306 311 312 315 326 331 329 335 339
240 239 239 239 239 238 239 239 240 240 241 241 242 243 244 245 246 246 246 246 247 247 247 248 248 249 249 248 248 249 249 249 249 250 251 251 252 254 255 256 256 257 259 260 260 259 259 258 257 257 257 258 258 258 259 260 261 262 263 263 264 264 263 263 264 266 268 270 273 276 280 285 290 294 297 301 304 307 311 311 313 323 330 333 347 355
240 240 239 239 239 239 239 239 239 240 241 241 242 242 244 244 244 245 246 246 247 247 248 248 249 249 249 249 249 250 250 250 250 249 249 249 249 250 251 253 254 255 257 259 259 259 258 256 256 256 256 256 257 257 258 259 260 261 262 263 263 263 262 262 263 264 267 270 273 276 280 284 288 292 296 300 304 306 309 308 308 316 325 338 359 2
240 240 239 239 239 239 239 239 239 240 241 242 242 243 243 244 244 245 246 247 247 248 248 249 249 249 250 250 249 249 250 251 250 249 248 247 247 247 248 250 252 253 254 256 257 257 256 256 255 255 255 256 256 257 258 259 260 261 262 262 263 263 262 261 262 263 266 269 272 275 279 282 286 290 294 299 302 305 307 304 302 308 318 342 9 4
239 240 239 238 239 239 239 239 239 240 241 242 243 243 243 244 244 245 246 247 248 248 248 248 248 248 249 249 249 248 249 249 249 247 246 246 245 246 247 249 250 251 251 253 254 255 255 255 254 254 254 255 256 257 258 259 260 260 261 262 262 262 261 260 261 262 265 268 271 274 277 280 283 288 293 297 301 303 304 299 295 299 310 338 10 2
239 239 239 238 238 239 239 240 241 241 242 242 242 242 243 243 244 244 245 246 247 247 248 248 248 248 248 248 248 247 246 247 248 247 246 246 245 245 246 247 248 249 250 251 252 253 254 254 254 254 254 255 255 256 257 258 259 259 260 261 261 261 261 260 260 262 264 267 270 273 276 278 280 284 290 295 299 301 301 295 288 287 293 297 306 329
239 240 240 240 240 240 240 240 241 241 241 241 241 241 242 242 243 243 243 244 245 247 248 248 247 246 244 244 244 244 243 244 245 246 246 245 245 244 245 245 246 247 248 249 250 251 252 253 254 254 254 255 255 256 256 257 258 258 259 260 261 262 261 260 260 261 262 265 268 271 274 276 277 281 286 291 296 298 298 293 283 276 271 246 222 223
239 240 241 240 240 240 241 240 240 240 241 241 242 242 242 243 244 245 246 246 247 248 248 248 247 244 242 241 242 242 242 242 242 244 245 245 245 244 244 245 245 246 246 247 249 250 251 252 253 254 254 255 255 255 256 257 257 257 258 260 261 262 261 260 260 260 261 263 265 269 272 275 275 278 283 288 292 295 294 290 282 271 260 238 214 210
239 239 239 240 240 240 240 241 241 241 241 242 242 243 244 245 246 248 248 248 247 247 247 248 248 245 242 241 241 241 242 242 243 244 246 246 246 245 245 245 246 246 246 247 248 249 250 251 252 253 254 254 254 254 255 255 256 256 257 258 260 262 261 260 259 259 259 261 264 267 270 273 274 276 280 284 289 292 292 287 281 270 257 238 218 208
239 239 239 239 239 239 239 240 241 242 243 243 244 245 246 247 247 247 247 247 247 247 247 248 249 246 242 240 240 240 241 242 243 244 245 246 247 247 246 246 246 246 247 247 248 249 250 250 251 251 252 252 253 253 253 254 254 254 255 257 258 260 260 259 259 259 259 260 262 264 268 271 273 275 277 281 285 288 289 285 278 269 257 240 222 211
239 240 240 239 239 239 239 240 241 242 244 245 245 245 245 246 246 247 247 248 248 248 248 249 249 247 243 241 240 240 240 241 242 244 244 245 246 247 247 247 246 246 246 247 247 248 249 249 249 249 250 250 251 252 252 252 252 253 253 255 257 258 258 258 259 259 259 259 261 263 266 269 272 274 275 278 281 284 285 283 275 267 258 244 227 215
239 240 240 240 239 239 239 239 239 240 241 242 242 242 243 244 245 246 246 246 247 247 247 248 248 246 243 241 240 240 240 240 240 242 243 244 245 245 246 246 246 246 246 246 246 246 247 248 248 248 248 249 250 250 251 251 251 251 252 253 255 256 256 256 258 259 260 260 260 262 265 267 270 272 274 276 278 279 281 280 274 265 257 247 234 221
238 239 240 240 240 239 239 238 238 238 239 240 240 241 241 242 243 244 245 245 246 247 247 247 247 246 244 243 242 240 239 240 240 240 240 242 243 244 244 245 245 245 245 245 245 245 245 246 246 247 247 248 249 249 250 250 250 250 251 251 252 253 254 254 256 258 259 260 261 261 264 266 267 269 272 274 276 277 277 276 273 266 256 248 240 230
238 238 239 240 240 240 240 239 238 238 239 240 240 240 241 241 242 243 244 245 246 247 247 248 248 247 244 242 242 241 240 239 240 240 240 241 243 244 245 245 245 245 245 245 244 244 244 245 246 247 247 247 248 248 249 249 249 249 249 249 250 251 251 251 253 256 258 260 261 261 263 265 265 267 269 272 273 275 274 273 271 267 259 249 242 236
238 238 239 240 240 240 240 239 239 238 239 239 239 240 241 242 242 243 244 245 245 246 247 246 247 247 245 243 243 244 242 241 241 242 243 242 243 244 245 245 246 246 246 246 245 245 245 246 247 247 247 246 247 247 247 247 247 247 247 247 248 248 248 249 250 253 255 258 260 261 263 265 265 266 267 269 271 273 274 273 270 267 261 253 245 239
238 239 239 240 241 240 240 240 239 239 239 238 238 239 240 241 242 243 244 244 245 246 246 246 246 246 245 243 242 243 243 242 241 242 242 242 241 242 242 243 245 245 246 246 246 245 245 246 247 247 247 247 246 246 246 246 246 246 246 246 246 247 247 247 249 250 252 255 257 259 262 264 265 266 267 268 269 270 272 272 270 267 263 257 249 242
238 239 239 240 241 241 241 241 240 240 239 239 238 238 239 240 241 242 243 244 245 246 247 247 246 246 244 243 241 240 240 240 239 239 239 239 239 240 240 241 242 243 244 245 245 245 244 245 246 247 247 247 246 245 245 245 244 244 245 245 245 246 247 247 248 249 250 252 254 257 260 262 264 266 267 268 269 269 270 270 269 268 264 259 253 246
238 239 240 240 241 241 242 242 242 241 240 240 240 239 239 240 241 242 243 243 244 245 246 246 246 245 244 243 241 240 240 240 240 239 238 238 238 239 240 240 241 242 243 244 244 244 244 244 244 245 246 246 246 245 244 244 242 242 243 244 245 245 246 246 247 248 249 250 251 254 258 260 262 264 266 268 270 270 270 270 268 267 265 262 257 250
238 239 240 240 241 241 241 242 243 243 242 241 241 240 240 239 240 241 241 242 243 244 245 245 245 244 244 244 243 242 241 241 240 240 239 239 239 239 240 241 242 242 243 243 244 244 243 243 243 243 244 244 244 244 243 243 242 241 242 243 244 244 245 245 246 247 249 249 250 252 255 257 259 261 263 266 269 271 271 270 269 267 265 263 261 256
238 238 239 240 241 241 241 241 243 243 243 242 241 241 241 240 240 240 241 241 241 242 243 244 244 243 243 243 243 242 241 241 240 240 239 239 240 240 240 241 241 242 242 243 244 244 243 242 241 241 241 241 240 241 241 242 241 241 241 242 242 243 243 244 245 247 248 249 250 251 252 253 256 259 261 263 267 271 272 271 270 269 266 264 262 259
239 239 239 239 240 241 241 241 242 243 243 242 241 241 242 241 241 241 241 241 241 242 243 243 243 243 243 243 243 242 242 241 241 240 240 241 241 241 241 241 241 241 241 242 242 243 242 240 239 239 240 240 241 241 241 241 241 240 240 240 241 242 243 243 245 246 248 250 251 251 251 251 253 256 259 262 265 269 271 272 272 270 269 266 262 259
240 239 239 239 240 240 241 241 242 244 243 242 241 241 242 243 243 243 243 242 242 242 243 243 242 242 242 242 242 242 242 242 241 240 240 241 242 242 242 241 240 240 240 240 241 241 242 241 240 240 241 242 242 242 241 241 240 240 240 240 240 241 242 243 244 246 248 249 251 251 250 250 251 254 257 261 263 267 269 271 271 271 269 267 264 260
241 240 240 240 240 240 240 240 241 243 243 242 241 241 242 242 243 243 243 242 242 242 242 242 242 241 241 241 241 241 242 242 241 239 239 241 242 242 241 241 240 240 239 239 240 240 241 242 242 241 241 241 242 242 241 240 240 239 239 239 240 240 241 242 244 246 247 249 250 251 251 250 250 252 255 259 262 264 267 269 269 269 268 267 265 262
241 241 240 240 240 240 240 240 240 241 242 242 241 241 242 242 242 243 243 242 241 241 242 242 242 241 240 239 239 240 240 241 240 239 239 240 240 240 240 240 240 239 239 238 239 239 239 240 240 241 241 241 241 241 241 240 239 238 239 239 239 240 240 242 243 245 247 248 249 250 251 250 250 251 253 257 260 262 264 266 267 266 266 265 263 262
240 241 241 240 240 240 240 241 241 241 241 241 240 240 241 242 242 242 242 243 242 241 241 242 242 241 240 239 239 239 239 239 239 238 238 239 239 239 239 239 239 239 239 238 238 238 238 238 239 239 240 241 241 241 241 241 239 238 238 239 240 240 240 241 243 244 246 247 248 250 251 251 250 250 251 254 259 261 263 264 264 263 262 262 262 261
238 240 241 241 241 241 241 241 241 240 240 240 240 239 240 241 242 241 242 242 242 241 241 242 242 242 241 240 239 240 240 239 238 236 236 237 237 238 238 238 238 238 239 239 238 238 238 238 238 238 239 240 241 241 242 242 242 240 239 239 240 241 242 242 243 244 245 247 249 250 251 252 251 250 251 253 256 260 262 262 262 261 260 260 260 260
236 238 240 241 242 242 241 241 241 240 238 238 239 239 239 240 242 242 242 242 241 241 241 241 241 241 241 240 240 240 240 239 238 237 237 237 237 238 239 239 238 238 238 239 239 239 238 238 239 238 238 239 240 241 242 243 243 242 241 239 239 240 242 242 243 244 245 247 249 250 251 252 251 251 251 252 254 257 260 261 260 259 259 259 259 259
236 237 238 240 241 242 242 242 242 240 238 237 237 238 239 239 241 243 243 242 241 240 240 240 240 241 241 240 240 239 239 238 238 238 239 239 239 239 240 240 240 239 238 238 239 239 239 239 239 239 239 238 239 240 242 243 243 243 243 241 240 240 241 242 244 245 246 247 249 250 252 253 252 251 251 252 253 255 258 260 259 258 257 257 257 258
237 237 237 238 240 241 242 242 243 242 239 236 236 237 238 238 240 241 242 242 241 240 239 239 239 240 240 240 240 239 238 238 238 238 239 239 240 240 240 241 241 241 239 238 238 239 239 239 239 239 240 239 239 240 241 242 243 243 243 243 243 242 242 243 244 245 246 247 248 250 252 253 253 252 252 253 254 255 256 257 257 256 256 255 256 256
238 238 237 237 238 240 241 241 242 242 239 236 235 236 237 237 238 240 241 242 242 240 239 238 238 239 240 240 239 239 238 238 238 239 239 239 239 239 239 239 240 241 241 240 239 238 239 239 239 240 240 240 240 239 240 242 243 243 244 244 244 244 244 245 245 246 247 248 248 250 251 253 254 254 253 253 254 255 256 256 256 255 253 254 254 255
238 238 237 236 237 239 240 240 240 240 239 237 236 237 238 237 237 238 240 241 241 241 240 239 238 238 238 239 238 238 237 237 237 238 239 240 240 240 239 239 238 239 240 240 240 239 238 238 239 240 240 240 240 240 240 241 242 243 243 244 244 245 245 246 246 247 247 248 249 250 251 252 254 254 254 254 254 254 255 256 255 253 252 252 253 254
238 239 238 236 236 238 239 239 239 240 240 239 237 237 238 238 238 238 239 240 241 241 240 240 239 238 238 238 238 237 237 237 237 237 238 239 240 240 240 240 239 238 238 239 239 238 238 238 239 239 239 240 240 240 240 240 241 241 242 244 244 245 246 246 246 247 247 248 249 250 251 252 253 254 254 254 254 254 255 255 254 253 252 252 252 253
237 238 238 236 235 236 238 238 238 239 240 240 239 239 240 240 240 239 239 240 241 241 241 241 240 239 239 239 238 237 237 237 237 237 237 238 239 240 241 241 240 239 238 238 238 238 237 238 238 239 239 239 240 240 240 241 241 241 242 243 244 245 246 246 246 247 247 248 248 249 251 252 253 253 254 254 254 254 254 254 253 253 253 252 252 252
236 237 238 237 236 236 237 238 238 239 239 240 240 240 240 241 240 240 240 241 242 242 242 242 241 240 240 240 240 238 237 236 236 236 236 237 238 239 240 241 241 240 239 238 238 238 237 237 238 238 238 238 238 239 239 240 241 241 241 242 243 244 245 246 247 247 248 248 248 249 250 251 252 252 253 253 253 253 253 253 253 253 253 253 253 252
237 237 238 238 236 236 236 237 237 238 239 240 240 240 240 240 240 239 239 240 241 242 242 242 242 241 241 241 241 240 239 238 237 236 236 237 237 238 239 240 241 241 240 239 238 238 238 237 238 238 238 238 238 238 238 239 240 241 241 242 242 243 244 245 246 247 248 248 248 248 248 249 250 251 251 251 252 252 252 252 253 253 253 253 253 253
238 237 238 238 237 237 237 236 237 237 237 238 239 240 240 240 240 239 238 238 240 241 242 242 242 241 241 241 240 240 240 239 238 237 237 237 237 237 238 239 240 240 240 239 239 238 238 238 238 237 238 238 238 238 238 238 239 240 240 241 242 242 243 244 245 246 247 247 247 247 247 248 248 248 249 250 250 251 251 251 252 252 253 253 253 253
Height
10590 10594 10605 10617 10625 10625 10622 10620 10619 10622 10626 10628 10631 10636 10641 10644 10650 10652 10650 10652 10654 10660 10669 10674 10683 10691 10690 10688 10684 10678 10680 10692 10700 10700 10699 10699 10699 10702 10704 10706 10705 10704 10703 10702 10710 10714 10716 10721 10715 10709 10711 10710 10709 10711 10711 10710 10708 10707 10706 10705 10705 10703 10701 10699 10698 10697 10696 10695 10695 10693 10692 10691 10690 10689 10688 10687 10686 10685 10683 10683 10682 10681 10679 10677 10676 10674
10577 10587 10602 10610 10610 10606 10604 10605 10606 10611 10617 10621 10622 10627 10633 10638 10642 10642 10640 10644 10644 10649 10659 10661 10668 10682 10685 10680 10677 10673 10675 10686 10692 10690 10691 10690 10691 10694 10695 10697 10697 10696 10696 10696 10701 10704 10707 10711 10705 10702 10704 10703 10702 10703 10703 10702 10700 10700 10699 10698 10697 10695 10693 10692 10691 10690 10689 10688 10687 10686 10685 10684 10682 10682 10680 10679 10678 10677 10676 10675 10672 10669 10669 10669 10668 10665
10569 10584 10597 10595 10591 10590 10589 10592 10595 10600 10605 10610 10614 10618 10624 10631 10633 10630 10630 10632 10632 10636 10645 10647 10653 10672 10678 10672 10672 10670 10671 10681 10682 10680 10683 10684 10684 10685 10684 10687 10689 10690 10690 10689 10691 10696 10700 10700 10695 10694 10695 10695 10696 10697 10696 10694 10693 10693 10692 10691 10690 10688 10686 10685 10684 10683 10682 10681 10681 10680 10678 10677 10675 10674 10672 10670 10670 10669 10668 10665 10662 10659 10658 10658 10658 10656
10561 10577 10582 10575 10572 10576 10578 10580 10584 10589 10594 10601 10607 10609 10615 10621 10618 10616 10618 10618 10619 10623 10631 10635 10641 10660 10669 10665 10667 10665 10665 10673 10672 10671 10676 10677 10676 10674 10675 10678 10681 10683 10684 10684 10685 10688 10691 10690 10686 10686 10686 10687 10689 10689 10688 10687 10686 10686 10685 10684 10682 10680 10679 10678 10677 10676 10675 10675 10674 10673 10671 10670 10668 10666 10664 10663 10662 10661 10658 10655 10652 10650 10647 10644 10643 10642
10552 10563 10563 10559 10560 10565 10569 10571 10575 10580 10586 10591 10594 10599 10605 10606 10601 10603 10605 10605 10607 10611 10620 10625 10627 10647 10661 10658 10659 10659 10658 10664 10663 10664 10670 10670 10666 10664 10665 10668 10672 10675 10677 10679 10680 10680 10681 10679 10677 10676 10676 10677 10680 10682 10680 10678 10678 10679 10678 10676 10675 10674 10672 10671 10670 10669 10669 10669 10668 10666 10664 10663 10661 10658 10657 10656 10655 10652 10648 10645 10642 10638 10634 10630 10628 10627
10540 10546 10547 10549 10549 10553 10557 10562 10565 10568 10574 10578 10581 10588 10591 10590 10587 10589 10592 10593 10595 10600 10609 10611 10611 10634 10653 10649 10649 10651 10651 10656 10656 10657 10661 10660 10657 10655 10654 10658 10664 10668 10670 10672 10674 10674 10673 10670 10668 10666 10665 10668 10672 10673 10672 10670 10671 10671 10670 10669 10668 10667 10665 10664 10663 10663 10663 10662 10661 10660 10658 10656 10653 10651 10650 10649 10647 10643 10640 10636 10631 10626 10620 10614 10611 10609
10529 10534 10535 10536 10537 10540 10543 10550 10555 10555 10559 10564 10570 10576 10574 10574 10575 10575 10577 10578 10582 10589 10596 10595 10598 10622 10642 10641 10641 10644 10646 10649 10649 10650 10650 10648 10646 10646 10646 10650 10656 10659 10661 10664 10667 10668 10665 10662 10661 10658 10658 10661 10665 10665 10663 10663 10664 10664 10663 10662 10661 10660 10659 10658 10657 10657 10656 10656 10655 10653 10651 10649 10646 10644 10643 10642 10639 10635 10632 10627 10620 10614 10607 10600 10595 10590
10522 10521 10518 10521 10522 10523 10528 10539 10544 10540 10541 10549 10558 10558 10555 10557 10560 10561 10562 10564 10571 10579 10583 10586 10590 10606 10629 10637 10635 10636 10640 10641 10643 10643 10638 10634 10633 10636 10641 10645 10647 10649 10652 10655 10659 10660 10658 10655 10653 10651 10652 10655 10657 10657 10656 10657 10658 10657 10656 10656 10655 10654 10653 10652 10651 10651 10650 10650 10648 10646 10644 10642 10639 10637 10636 10635 10630 10627 10624 10617 10610 10602 10594 10588 10581 10572
10506 10500 10500 10503 10504 10509 10519 10528 10528 10521 10524 10537 10544 10541 10541 10545 10548 10551 10552 10554 10560 10564 10572 10584 10584 10588 10613 10633 10630 10626 10631 10635 10636 10632 10624 10621 10624 10629 10635 10636 10637 10640 10643 10646 10648 10650 10649 10647 10646 10645 10647 10649 10649 10649 10649 10650 10651 10650 10650 10649 10649 10647 10646 10646 10645 10645 10644 10643 10641 10639 10638 10635 10632 10630 10629 10627 10623 10619 10615 10608 10600 10591 10583 10577 10567 10556
10486 10486 10489 10489 10493 10504 10512 10513 10511 10508 10513 10525 10529 10529 10531 10533 10536 10539 10539 10543 10546 10548 10565 10580 10575 10571 10594 10622 10625 10618 10624 10629 10626 10618 10611 10613 10617 10621 10626 10626 10628 10631 10633 10635 10638 10642 10642 10639 10638 10639 10640 10641 10642 10642 10642 10643 10644 10643 10643 10643 10642 10641 10640 10640 10639 10639 10638 10637 10635 10633 10631 10629 10626 10624 10622 10620 10615 10611 10606 10598 10590 10581 10573 10565 10554 10544
10471 10476 10476 10477 10485 10495 10497 10497 10497 10496 10501 10510 10514 10517 10520 10519 10522 10524 10525 10530 10528 10537 10560 10569 10563 10559 10572 10606 10621 10614 10616 10617 10613 10609 10605 10604 10606 10611 10616 10617 10619 10621 10623 10625 10628 10633 10635 10631 10630 10632 10633 10634 10634 10634 10635 10636 10636 10636 10636 10636 10636 10635 10635 10635 10634 10633 10632 10631 10629 10627 10625 10623 10620 10617 10616 10613 10608 10603 10597 10590 10580 10571 10563 10555 10545 10534
10458 10461 10464 10470 10475 10478 10481 10482 10484 10484 10488 10495 10499 10504 10506 10503 10505 10507 10509 10514 10515 10531 10553 10554 10550 10547 10554 10590 10612 10608 10608 10606 10602 10602 10598 10595 10597 10601 10605 10608 10610 10612 10614 10615 10617 10623 10625 10624 10623 10624 10625 10626 10626 10627 10628 10629 10629 10629 10629 10629 10629 10629 10629 10629 10627 10627 10626 10625 10624 10622 10620 10617 10614 10611 10610 10607 10602 10595 10589 10582 10573 10562 10554 10546 10536 10526
10439 10444 10451 10454 10456 10459 10464 10468 10471 10473 10477 10482 10486 10491 10491 10487 10490 10492 10495 10502 10509 10526 10540 10536 10534 10534 10543 10576 10597 10598 10600 10598 10594 10594 10592 10590 10589 10591 10594 10596 10599 10602 10604 10606 10608 10612 10614 10615 10616 10617 10617 10618 10618 10620 10621 10621 10622 10622 10622 10623 10623 10623 10623 10622 10621 10620 10620 10619 10618 10617 10615 10612 10608 10605 10605 10602 10596 10589 10582 10575 10567 10556 10545 10537 10528 10519
10422 10431 10436 10437 10444 10451 10454 10457 10462 10466 10470 10469 10470 10473 10471 10468 10472 10477 10484 10491 10500 10512 10520 10518 10516 10520 10535 10564 10583 10589 10590 10589 10589 10588 10586 10583 10578 10580 10582 10584 10587 10590 10594 10597 10599 10602 10604 10606 10608 10609 10609 10610 10611 10612 10613 10614 10614 10615 10615 10616 10616 10617 10616 10616 10615 10615 10614 10614 10613 10612 10610 10607 10602 10599 10599 10597 10591 10584 10577 10569 10562 10552 10541 10532 10524 10514
10411 10419 10427 10433 10439 10443 10441 10443 10448 10451 10448 10444 10446 10447 10445 10450 10459 10467 10475 10479 10486 10494 10498 10498 10500 10512 10536 10558 10570 10576 10578 10580 10581 10580 10578 10575 10570 10569 10570 10574 10577 10578 10581 10587 10590 10593 10596 10598 10600 10600 10601 10602 10604 10605 10606 10607 10607 10607 10608 10608 10610 10610 10610 10610 10609 10609 10609 10608 10608 10607 10605 10602 10597 10594 10594 10593 10587 10580 10574 10566 10559 10551 10540 10532 10524 10514
10399 10407 10419 10421 10420 10422 10424 10426 10428 10427 10422 10425 10431 10428 10432 10450 10458 10457 10460 10466 10472 10476 10479 10484 10494 10513 10536 10549 10554 10559 10565 10570 10571 10571 10571 10569 10565 10563 10562 10563 10564 10564 10568 10575 10580 10584 10587 10590 10591 10591 10592 10594 10597 10598 10598 10599 10599 10600 10600 10601 10603 10603 10603 10604 10604 10604 10603 10603 10602 10601 10600 10597 10593 10589 10588 10588 10583 10576 10571 10565 10558 10553 10544 10535 10527 10518
10380 10388 10401 10400 10398 10406 10409 10408 10409 10407 10406 10412 10415 10418 10434 10448 10443 10435 10440 10451 10455 10456 10464 10476 10489 10508 10523 10533 10541 10546 10553 10560 10561 10563 10563 10560 10559 10559 10556 10550 10548 10554 10559 10563 10570 10574 10578 10580 10581 10582 10584 10587 10588 10589 10590 10591 10592 10593 10593 10594 10596 10597 10597 10598 10598 10598 10598 10597 10597 10596 10595 10593 10589 10585 10584 10584 10580 10573 10569 10564 10558 10554 10548 10539 10531 10525
10360 10368 10383 10385 10383 10391 10393 10391 10392 10390 10390 10394 10402 10419 10431 10424 10417 10419 10424 10432 10438 10442 10456 10470 10483 10498 10508 10520 10536 10539 10542 10549 10550 10551 10551 10549 10550 10551 10546 10538 10537 10547 10552 10552 10557 10562 10566 10569 10571 10573 10576 10578 10580 10581 10582 10584 10584 10585 10586 10587 10588 10590 10590 10591 10592 10593 10592 10592 10591 10590 10590 10588 10585 10582 10579 10579 10577 10571 10567 10563 10558 10555 10551 10544 10537 10533
10341 10348 10363 10369 10368 10373 10374 10372 10374 10375 10379 10386 10398 10413 10411 10398 10405 10413 10410 10417 10431 10436 10448 10463 10474 10485 10495 10513 10530 10531 10531 10535 10535 10536 10538 10537 10539 10540 10536 10530 10530 10539 10545 10545 10546 10550 10554 10558 10561 10565 10567 10569 10571 10572 10574 10576 10577 10578 10578 10579 10581 10582 10584 10585 10587 10587 10587 10586 10585 10585 10585 10583 10581 10578 10575 10574 10573 10569 10565 10562 10558 10555 10552 10547 10543 10540
10324 10328 10341 10350 10350 10352 10351 10350 10357 10367 10375 10381 10388 10396 10393 10389 10399 10404 10400 10409 10422 10424 10434 10451 10461 10472 10490 10508 10517 10518 10520 10520 10518 10520 10523 10523 10527 10528 10526 10523 10523 10529 10535 10538 10538 10539 10544 10548 10552 10555 10558 10560 10562 10563 10566 10568 10570 10571 10571 10572 10573 10575 10577 10579 10580 10581 10581 10581 10580 10579 10579 10579 10577 10575 10572 10570 10569 10566 10563 10560 10558 10555 10552 10550 10547 10546
10308 10306 10318 10332 10333 10330 10333 10342 10356 10367 10369 10369 10372 10377 10378 10380 10386 10391 10391 10397 10406 10411 10423 10437 10448 10466 10490 10500 10501 10504 10508 10506 10503 10505 10508 10510 10513 10516 10515 10515 10517 10520 10525 10529 10529 10530 10534 10539 10543 10546 10549 10552 10553 10555 10558 10560 10562 10563 10563 10564 10566 10568 10570 10572 10574 10575 10575 10575 10575 10573 10573 10574 10573 10571 10569 10567 10565 10563 10561 10559 10557 10555 10553 10551 10550 10549
10298 10297 10306 10318 10319 10318 10329 10343 10351 10350 10347 10348 10354 10359 10364 10369 10370 10372 10375 10386 10397 10402 10413 10424 10435 10459 10481 10485 10486 10490 10493 10493 10492 10491 10494 10496 10499 10503 10505 10505 10508 10512 10515 10517 10519 10521 10525 10530 10533 10537 10540 10542 10544 10547 10550 10552 10554 10555 10556 10557 10559 10561 10563 10565 10567 10569 10569 10570 10569 10568 10568 10568 10568 10567 10566 10564 10562 10560 10558 10557 10556 10555 10553 10552 10552 10551
10286 10283 10286 10294 10302 10309 10319 10327 10329 10328 10330 10335 10340 10346 10353 10355 10357 10362 10371 10387 10395 10394 10401 10409 10417 10446 10471 10474 10476 10480 10479 10482 10481 10478 10480 10483 10486 10491 10494 10494 10498 10503 10505 10507 10510 10513 10516 10521 10525 10528 10530 10532 10535 10538 10541 10544 10545 10547 10549 10550 10552 10554 10556 10558 10559 10562 10563 10564 10563 10562 10562 10562 10563 10563 10561 10560 10559 10557 10556 10554 10553 10553 10553 10552 10552 10552
10260 10254 10259 10272 10285 10295 10303 10308 10312 10315 10318 10320 10327 10339 10349 10353 10360 10365 10368 10377 10379 10377 10388 10393 10402 10440 10467 10467 10469 10472 10470 10471 10472 10471 10472 10473 10477 10481 10483 10485 10489 10494 10497 10498 10502 10505 10508 10514 10518 10520 10521 10523 10526 10529 10532 10535 10538 10540 10542 10544 10546 10548 10549 10550 10551 10554 10556 10557 10557 10557 10556 10556 10557 10557 10556 10555 10555 10554 10552 10551 10550 10550 10551 10551 10550 10551
10233 10232 10243 10256 10266 10275 10283 10289 10294 10300 10307 10315 10329 10344 10348 10349 10350 10348 10348 10355 10356 10365 10382 10382 10392 10433 10457 10455 10459 10462 10461 10462 10462 10463 10464 10464 10466 10469 10471 10475 10479 10483 10487 10489 10493 10497 10500 10506 10509 10510 10512 10513 10517 10521 10524 10528 10530 10533 10536 10538 10540 10541 10542 10543 10543 10545 10548 10550 10551 10551 10551 10551 10551 10552 10551 10551 10550 10550 10549 10548 10547 10547 10548 10549 10549 10549
10214 10218 10229 10238 10246 10255 10266 10277 10289 10302 10310 10313 10322 10329 10329 10328 10329 10330 10337 10341 10343 10359 10373 10370 10385 10423 10441 10443 10449 10451 10450 10453 10452 10452 10454 10454 10456 10458 10460 10465 10468 10473 10478 10480 10485 10489 10491 10495 10498 10500 10502 10505 10509 10513 10516 10520 10523 10526 10529 10531 10533 10535 10535 10536 10536 10537 10540 10542 10544 10544 10545 10546 10546 10546 10546 10546 10546 10546 10545 10545 10544 10543 10544 10546 10546 10547
10199 10204 10211 10217 10226 10237 10249 10265 10278 10285 10284 10282 10290 10301 10307 10311 10315 10317 10318 10318 10328 10346 10353 10357 10379 10408 10422 10429 10436 10438 10439 10441 10441 10442 10443 10444 10446 10448 10450 10454 10458 10463 10467 10471 10475 10479 10481 10483 10485 10488 10492 10496 10500 10504 10508 10512 10516 10519 10522 10524 10525 10527 10528 10529 10529 10529 10531 10534 10536 10537 10539 10540 10540 10540 10540 10540 10541 10541 10541 10541 10541 10541 10541 10542 10543 10544
10184 10188 10195 10198 10205 10216 10228 10244 10254 10255 10255 10259 10271 10282 10289 10294 10297 10295 10294 10302 10320 10328 10333 10350 10372 10390 10408 10416 10418 10425 10429 10428 10429 10431 10431 10433 10435 10437 10440 10443 10447 10451 10455 10460 10464 10467 10469 10471 10474 10478 10483 10487 10492 10496 10500 10504 10508 10511 10514 10516 10518 10519 10521 10523 10523 10523 10524 10526 10528 10530 10532 10533 10534 10535 10535 10535 10535 10536 10536 10536 10537 10538 10538 10538 10539 10541
10166 10173 10181 10179 10184 10198 10212 10226 10237 10241 10245 10251 10259 10267 10273 10277 10278 10280 10284 10298 10310 10310 10322 10350 10361 10372 10396 10402 10399 10411 10418 10417 10419 10419 10420 10425 10427 10428 10431 10433 10437 10441 10444 10449 10453 10456 10459 10461 10464 10468 10474 10479 10483 10488 10493 10496 10499 10502 10504 10507 10510 10512 10515 10516 10516 10517 10517 10518 10520 10523 10525 10526 10528 10529 10530 10530 10530 10530 10531 10532 10532 10533 10534 10534 10535 10536
10147 10157 10165 10160 10165 10183 10194 10205 10217 10223 10228 10236 10245 10254 10261 10263 10266 10271 10276 10289 10297 10295 10312 10338 10343 10354 10382 10391 10389 10397 10403 10407 10411 10409 10412 10418 10418 10419 10421 10422 10428 10431 10434 10439 10443 10447 10451 10453 10456 10460 10464 10470 10475 10479 10484 10486 10489 10492 10495 10498 10502 10504 10507 10508 10509 10510 10511 10511 10512 10515 10517 10518 10520 10523 10524 10525 10525 10525 10525 10526 10527 10528 10529 10530 10531 10531
10130 10140 10150 10147 10151 10167 10176 10184 10197 10203 10208 10217 10228 10239 10246 10249 10252 10259 10265 10275 10281 10283 10300 10322 10328 10343 10370 10380 10378 10382 10388 10397 10403 10401 10403 10406 10405 10407 10409 10412 10417 10420 10423 10428 10432 10437 10442 10445 10447 10451 10455 10461 10466 10470 10474 10476 10479 10483 10486 10490 10493 10496 10498 10500 10502 10503 10503 10504 10505 10507 10509 10510 10512 10515 10517 10519 10520 10520 10520 10521 10521 10523 10524 10525 10526 10527
10117 10125 10137 10135 10134 10150 10163 10166 10175 10186 10192 10199 10212 10227 10236 10237 10240 10248 10255 10264 10271 10277 10292 10306 10315 10334 10357 10359 10356 10365 10376 10383 10386 10387 10389 10390 10390 10392 10396 10401 10405 10408 10411 10415 10419 10426 10432 10436 10439 10442 10446 10452 10456 10460 10463 10465 10469 10474 10478 10481 10484 10487 10489 10492 10494 10494 10495 10497 10498 10500 10502 10503 10504 10506 10508 10511 10513 10514 10515 10515 10516 10518 10519 10520 10521 10522
10107 10113 10124 10121 10119 10137 10150 10148 10156 10169 10173 10181 10200 10217 10225 10228 10232 10238 10244 10252 10260 10266 10274 10286 10301 10323 10335 10330 10334 10356 10368 10369 10370 10372 10373 10376 10378 10380 10384 10390 10394 10397 10400 10402 10405 10414 10421 10426 10430 10433 10437 10442 10446 10449 10450 10454 10460 10466 10469 10472 10475 10478 10481 10483 10484 10485 10486 10488 10491 10493 10495 10496 10498 10499 10500 10503 10505 10507 10509 10510 10511 10512 10513 10514 10515 10516
10097 10102 10109 10107 10105 10120 10136 10137 10139 10143 10150 10170 10193 10202 10208 10216 10219 10222 10229 10240 10248 10251 10257 10269 10286 10300 10307 10309 10326 10349 10355 10351 10353 10355 10356 10363 10368 10371 10375 10379 10382 10386 10388 10388 10393 10402 10410 10415 10420 10423 10428 10432 10434 10434 10437 10443 10451 10456 10459 10463 10466 10470 10472 10473 10474 10475 10477 10480 10482 10485 10488 10489 10491 10492 10494 10496 10497 10499 10501 10503 10505 10507 10508 10508 10509 10510
10085 10090 10095 10094 10089 10101 10123 10125 10113 10112 10134 10166 10181 10183 10189 10199 10202 10206 10215 10225 10232 10235 10240 10251 10264 10278 10290 10299 10314 10328 10330 10329 10334 10338 10343 10353 10359 10362 10365 10369 10372 10374 10374 10375 10381 10389 10397 10403 10408 10411 10414 10416 10417 10419 10427 10435 10442 10446 10450 10454 10457 10460 10462 10463 10465 10467 10468 10471 10473 10475 10478 10481 10484 10485 10487 10489 10490 10491 10493 10496 10498 10501 10502 10503 10503 10504
10072 10077 10081 10080 10074 10083 10104 10103 10089 10097 10128 10153 10161 10165 10173 10180 10187 10195 10202 10211 10221 10224 10228 10238 10252 10266 10277 10283 10294 10305 10308 10311 10316 10323 10336 10346 10350 10353 10355 10358 10358 10357 10358 10362 10368 10374 10381 10388 10393 10396 10398 10401 10405 10412 10422 10428 10432 10436 10441 10444 10446 10449 10451 10454 10456 10458 10459 10460 10462 10465 10468 10473 10476 10479 10481 10483 10484 10485 10485 10488 10491 10493 10495 10497 10497 10498
10055 10060 10065 10065 10060 10067 10082 10085 10082 10092 10112 10130 10143 10153 10159 10166 10176 10184 10186 10196 10209 10212 10214 10225 10237 10248 10258 10268 10280 10288 10288 10288 10294 10312 10333 10341 10339 10340 10342 10341 10338 10337 10343 10350 10354 10359 10366 10374 10382 10387 10389 10393 10398 10406 10414 10418 10421 10426 10430 10433 10436 10439 10441 10444 10447 10448 10449 10450 10451 10453 10458 10464 10469 10473 10474 10475 10477 10478 10478 10480 10483 10485 10487 10489 10490 10491
10035 10042 10049 10048 10047 10054 10062 10069 10072 10075 10087 10110 10130 10142 10149 10154 10160 10163 10163 10173 10190 10197 10199 10206 10216 10228 10242 10254 10265 10269 10264 10262 10276 10308 10331 10328 10320 10322 10322 10318 10315 10319 10329 10337 10340 10347 10356 10364 10371 10376 10379 10384 10389 10395 10401 10405 10409 10414 10419 10423 10427 10429 10432 10436 10437 10437 10438 10438 10439 10442 10448 10456 10462 10465 10467 10468 10468 10470 10472 10473 10475 10477 10479 10480 10482 10484
10017 10024 10031 10030 10032 10040 10042 10048 10057 10061 10073 10099 10120 10132 10137 10136 10139 10142 10140 10150 10173 10183 10181 10185 10196 10210 10225 10238 10247 10246 10238 10241 10271 10310 10321 10305 10297 10299 10294 10290 10296 10304 10315 10323 10328 10336 10344 10350 10356 10361 10366 10373 10379 10382 10385 10388 10394 10403 10409 10414 10417 10420 10425 10428 10427 10426 10425 10425 10429 10434 10439 10447 10453 10456 10459 10459 10459 10462 10464 10466 10467 10468 10470 10471 10473 10475
10003 10007 10013 10012 10018 10028 10028 10030 10043 10054 10066 10087 10109 10121 10120 10117 10121 10121 10114 10127 10155 10166 10165 10171 10183 10195 10207 10218 10224 10220 10217 10236 10275 10301 10292 10271 10267 10268 10262 10267 10281 10290 10299 10308 10315 10322 10329 10335 10342 10349 10354 10362 10367 10367 10368 10373 10382 10393 10401 10404 10406 10411 10416 10417 10413 10411 10411 10414 10421 10427 10431 10436 10443 10447 10449 10451 10452 10453 10456 10458 10459 10460 10461 10462 10464 10467
9991 9991 9995 9998 10006 10013 10013 10016 10028 10044 10059 10078 10096 10107 10105 10100 10096 10091 10093 10114 10138 10147 10152 10160 10167 10175 10186 10196 10201 10201 10210 10238 10267 10271 10252 10238 10239 10242 10244 10257 10271 10277 10285 10295 10301 10308 10316 10322 10330 10338 10344 10350 10353 10353 10356 10361 10371 10383 10390 10393 10398 10403 10405 10401 10398 10399 10402 10408 10414 10418 10421 10426 10432 10437 10440 10442 10444 10445 10446 10449 10450 10451 10452 10454 10455 10458
9980 9981 9982 9987 9994 9999 10001 10005 10014 10030 10051 10072 10083 10088 10087 10079 10071 10071 10084 10101 10115 10127 10138 10144 10147 10155 10164 10174 10184 10193 10208 10231 10244 10237 10224 10220 10226 10230 10236 10248 10258 10264 10272 10280 10286 10294 10304 10311 10317 10325 10332 10337 10339 10341 10345 10351 10360 10370 10377 10383 10390 10392 10388 10385 10386 10390 10395 10400 10404 10408 10411 10415 10420 10427 10431 10433 10436 10437 10437 10439 10441 10442 10444 10445 10446 10448
9971 9971 9971 9977 9983 9986 9988 9992 9999 10015 10044 10066 10070 10065 10064 10062 10059 10062 10069 10077 10093 10112 10122 10124 10129 10137 10144 10156 10169 10181 10196 10210 10213 10208 10207 10211 10218 10223 10229 10236 10243 10250 10258 10266 10273 10281 10291 10299 10306 10313 10318 10323 10328 10331 10335 10341 10349 10356 10363 10372 10377 10376 10374 10374 10377 10382 10387 10390 10394 10398 10400 10403 10409 10416 10421 10423 10426 10428 10428 10429 10431 10433 10435 10436 10437 10439
9958 9958 9963 9972 9974 9972 9974 9980 9989 10006 10030 10048 10047 10039 10040 10046 10047 10047 10047 10054 10073 10093 10101 10105 10114 10121 10128 10141 10153 10164 10178 10187 10187 10186 10190 10196 10203 10211 10219 10225 10229 10235 10244 10254 10262 10269 10277 10286 10293 10298 10303 10309 10317 10323 10326 10330 10337 10343 10350 10358 10360 10361 10364 10366 10368 10373 10377 10380 10383 10387 10389 10391 10397 10404 10410 10413 10416 10418 10419 10420 10421 10422 10425 10427 10428 10430
9949 9948 9955 9962 9960 9959 9965 9973 9981 9991 10005 10019 10022 10016 10018 10027 10030 10030 10032 10039 10052 10068 10079 10089 10099 10106 10112 10122 10133 10145 10159 10168 10169 10170 10172 10178 10185 10193 10202 10210 10214 10220 10229 10239 10250 10258 10266 10273 10279 10283 10289 10296 10303 10311 10316 10319 10324 10331 10338 10342 10344 10348 10353 10355 10357 10363 10367 10368 10372 10377 10378 10380 10385 10391 10397 10402 10405 10406 10408 10410 10412 10413 10414 10417 10419 10421
9937 9933 9938 9948 9951 9950 9956 9962 9967 9972 9981 9995 10003 10000 10000 10009 10016 10019 10022 10026 10033 10046 10058 10069 10082 10090 10094 10100 10113 10127 10138 10147 10153 10155 10156 10162 10169 10175 10183 10191 10198 10206 10214 10222 10232 10243 10252 10260 10265 10269 10274 10281 10288 10297 10303 10307 10313 10319 10323 10326 10331 10336 10339 10342 10346 10351 10353 10356 10360 10365 10367 10369 10373 10378 10383 10388 10392 10395 10396 10398 10401 10403 10405 10407 10409 10411
9923 9919 9925 9937 9940 9939 9943 9950 9954 9959 9967 9976 9983 9985 9987 9995 10005 10010 10013 10015 10019 10028 10038 10049 10063 10073 10076 10082 10095 10110 10121 10130 10136 10139 10142 10146 10152 10158 10165 10172 10181 10192 10199 10205 10214 10226 10235 10244 10250 10254 10260 10266 10273 10282 10289 10294 10300 10305 10308 10312 10318 10322 10324 10328 10333 10336 10339 10343 10347 10352 10356 10357 10360 10364 10370 10375 10379 10382 10384 10387 10390 10393 10396 10397 10398 10400
9909 9906 9910 9920 9927 9928 9932 9938 9941 9948 9955 9959 9966 9974 9978 9984 9993 10002 10006 10007 10008 10014 10023 10034 10046 10055 10061 10068 10079 10093 10105 10113 10118 10125 10129 10132 10135 10141 10145 10152 10164 10176 10185 10192 10200 10209 10218 10226 10231 10237 10245 10251 10259 10267 10274 10280 10285 10290 10295 10300 10304 10307 10310 10314 10318 10321 10325 10330 10335 10340 10344 10344 10346 10352 10358 10362 10366 10369 10372 10376 10380 10383 10385 10387 10389 10391
9893 9894 9899 9908 9916 9919 9922 9927 9932 9938 9943 9946 9953 9962 9966 9969 9979 9990 9997 9998 9998 10002 10010 10020 10031 10040 10047 10056 10066 10078 10089 10096 10102 10109 10115 10117 10121 10125 10128 10134 10145 10158 10170 10181 10188 10194 10202 10208 10213 10220 10228 10235 10243 10252 10259 10264 10269 10274 10281 10286 10290 10293 10297 10299 10302 10306 10311 10317 10322 10328 10330 10332 10335 10340 10345 10349 10352 10356 10360 10365 10369 10372 10375 10377 10380 10381
9882 9891 9894 9896 9904 9909 9912 9917 9921 9925 9929 9933 9939 9946 9949 9954 9964 9976 9984 9985 9985 9988 9996 10005 10016 10025 10034 10044 10055 10064 10071 10078 10086 10093 10099 10101 10104 10108 10112 10117 10127 10140 10153 10164 10171 10178 10186 10192 10197 10204 10211 10217 10225 10234 10243 10249 10254 10259 10265 10270 10275 10280 10283 10286 10289 10292 10296 10302 10308 10313 10316 10319 10323 10327 10331 10335 10339 10343 10349 10355 10359 10361 10364 10366 10368 10370
9875 9883 9882 9884 9893 9899 9901 9903 9905 9908 9915 9920 9923 9929 9935 9941 9951 9962 9968 9971 9973 9977 9982 9990 10000 10010 10019 10030 10041 10049 10053 10060 10068 10076 10081 10084 10085 10090 10096 10102 10110 10123 10135 10144 10153 10162 10168 10173 10180 10188 10195 10201 10209 10218 10227 10234 10239 10244 10249 10254 10260 10264 10268 10271 10275 10278 10282 10286 10292 10297 10301 10305 10310 10315 10318 10322 10327 10333 10339 10344 10347 10350 10352 10354 10356 10358